owner,sensor,date,latitude,longitude,air_pressure(mBar),qcFlag 
TABS,ioos:station:wmo:42046:1,2006-01-01T00:00:00Z,27.8903,-94.0367,1011.7,11111222 
TABS,ioos:station:wmo:42046:1,2006-01-01T00:30:00Z,27.8903,-94.0367,1011.94,11111222 
TABS,ioos:station:wmo:42046:1,2006-01-01T01:00:00Z,27.8903,-94.0367,1012.0,11111222 
TABS,ioos:station:wmo:42046:1,2006-01-01T01:30:00Z,27.8903,-94.0367,1012.04,11111222 
TABS,ioos:station:wmo:42046:1,2006-01-01T02:00:00Z,27.8903,-94.0367,1012.13,11111222 
TABS,ioos:station:wmo:42046:1,2006-01-01T02:30:00Z,27.8903,-94.0367,1012.16,11111222 
TABS,ioos:station:wmo:42046:1,2006-01-01T03:00:00Z,27.8903,-94.0367,1012.37,11111222 
TABS,ioos:station:wmo:42046:1,2006-01-01T03:30:00Z,27.8903,-94.0367,1012.26,11111222 
TABS,ioos:station:wmo:42046:1,2006-01-01T04:00:00Z,27.8903,-94.0367,1012.28,11111222 
TABS,ioos:station:wmo:42046:1,2006-01-01T04:30:00Z,27.8903,-94.0367,1012.1,11111222 
TABS,ioos:station:wmo:42046:1,2006-01-01T05:00:00Z,27.8903,-94.0367,1011.63,11111222 
TABS,ioos:station:wmo:42046:1,2006-01-01T05:30:00Z,27.8903,-94.0367,1011.39,11111222 
TABS,ioos:station:wmo:42046:1,2006-01-01T06:00:00Z,27.8903,-94.0367,1011.12,11111222 
TABS,ioos:station:wmo:42046:1,2006-01-01T06:30:00Z,27.8903,-94.0367,1010.87,11111222 
TABS,ioos:station:wmo:42046:1,2006-01-01T07:00:00Z,27.8903,-94.0367,1010.67,11111222 
TABS,ioos:station:wmo:42046:1,2006-01-01T07:30:00Z,27.8903,-94.0367,1010.33,11111222 
TABS,ioos:station:wmo:42046:1,2006-01-01T08:00:00Z,27.8903,-94.0367,1010.49,11111222 
TABS,ioos:station:wmo:42046:1,2006-01-01T08:30:00Z,27.8903,-94.0367,1010.48,11111222 
TABS,ioos:station:wmo:42046:1,2006-01-01T09:00:00Z,27.8903,-94.0367,1010.39,11111222 
TABS,ioos:station:wmo:42046:1,2006-01-01T09:30:00Z,27.8903,-94.0367,1010.48,11111222 
TABS,ioos:station:wmo:42046:1,2006-01-01T10:00:00Z,27.8903,-94.0367,1010.44,11111222 
TABS,ioos:station:wmo:42046:1,2006-01-01T10:30:00Z,27.8903,-94.0367,1010.36,11111222 
TABS,ioos:station:wmo:42046:1,2006-01-01T11:00:00Z,27.8903,-94.0367,1010.12,11111222 
TABS,ioos:station:wmo:42046:1,2006-01-01T11:30:00Z,27.8903,-94.0367,1010.33,11111222 
TABS,ioos:station:wmo:42046:1,2006-01-01T12:00:00Z,27.8903,-94.0367,1010.41,11111222 
TABS,ioos:station:wmo:42046:1,2006-01-01T12:30:00Z,27.8903,-94.0367,1010.24,11111222 
TABS,ioos:station:wmo:42046:1,2006-01-01T13:00:00Z,27.8903,-94.0367,1010.15,11111222 
TABS,ioos:station:wmo:42046:1,2006-01-01T13:30:00Z,27.8903,-94.0367,1010.45,11111222 
TABS,ioos:station:wmo:42046:1,2006-01-01T14:00:00Z,27.8903,-94.0367,1010.66,11111222 
TABS,ioos:station:wmo:42046:1,2006-01-01T14:30:00Z,27.8903,-94.0367,1010.83,11111222 
TABS,ioos:station:wmo:42046:1,2006-01-01T15:00:00Z,27.8903,-94.0367,1011.05,11111222 
TABS,ioos:station:wmo:42046:1,2006-01-01T15:30:00Z,27.8903,-94.0367,1011.02,11111222 
TABS,ioos:station:wmo:42046:1,2006-01-01T16:00:00Z,27.8903,-94.0367,1011.18,11111222 
TABS,ioos:station:wmo:42046:1,2006-01-01T16:30:00Z,27.8903,-94.0367,1011.22,11111222 
TABS,ioos:station:wmo:42046:1,2006-01-01T17:00:00Z,27.8903,-94.0367,1011.08,11111222 
TABS,ioos:station:wmo:42046:1,2006-01-01T17:30:00Z,27.8903,-94.0367,1010.94,11111222 
TABS,ioos:station:wmo:42046:1,2006-01-01T18:00:00Z,27.8903,-94.0367,1010.21,11111222 
TABS,ioos:station:wmo:42046:1,2006-01-01T18:30:00Z,27.8903,-94.0367,1009.94,11111222 
TABS,ioos:station:wmo:42046:1,2006-01-01T19:00:00Z,27.8903,-94.0367,1009.49,11111222 
TABS,ioos:station:wmo:42046:1,2006-01-01T19:30:00Z,27.8903,-94.0367,1009.45,11111222 
TABS,ioos:station:wmo:42046:1,2006-01-01T20:00:00Z,27.8903,-94.0367,1008.95,11111222 
TABS,ioos:station:wmo:42046:1,2006-01-01T20:30:00Z,27.8903,-94.0367,1008.79,11111222 
TABS,ioos:station:wmo:42046:1,2006-01-01T21:00:00Z,27.8903,-94.0367,1008.7,11111222 
TABS,ioos:station:wmo:42046:1,2006-01-01T21:30:00Z,27.8903,-94.0367,1008.59,11111222 
TABS,ioos:station:wmo:42046:1,2006-01-01T22:00:00Z,27.8903,-94.0367,1008.64,11111222 
TABS,ioos:station:wmo:42046:1,2006-01-01T22:30:00Z,27.8903,-94.0367,1008.52,11111222 
TABS,ioos:station:wmo:42046:1,2006-01-01T23:00:00Z,27.8903,-94.0367,1008.56,11111222 
TABS,ioos:station:wmo:42046:1,2006-01-01T23:30:00Z,27.8903,-94.0367,1008.59,11111222 
TABS,ioos:station:wmo:42046:1,2006-01-02T00:00:00Z,27.8903,-94.0367,1008.91,11111222 
TABS,ioos:station:wmo:42046:1,2006-01-02T00:30:00Z,27.8903,-94.0367,1009.34,11111222 
TABS,ioos:station:wmo:42046:1,2006-01-02T01:00:00Z,27.8903,-94.0367,1009.65,11111222 
TABS,ioos:station:wmo:42046:1,2006-01-02T01:30:00Z,27.8903,-94.0367,1009.78,11111222 
TABS,ioos:station:wmo:42046:1,2006-01-02T02:00:00Z,27.8903,-94.0367,1009.8,11111222 
TABS,ioos:station:wmo:42046:1,2006-01-02T02:30:00Z,27.8903,-94.0367,1010.01,11111222 
TABS,ioos:station:wmo:42046:1,2006-01-02T03:00:00Z,27.8903,-94.0367,1010.38,11111222 
TABS,ioos:station:wmo:42046:1,2006-01-02T03:30:00Z,27.8903,-94.0367,1010.34,11111222 
TABS,ioos:station:wmo:42046:1,2006-01-02T04:00:00Z,27.8903,-94.0367,1010.89,11111222 
TABS,ioos:station:wmo:42046:1,2006-01-02T04:30:00Z,27.8903,-94.0367,1011.45,11111222 
TABS,ioos:station:wmo:42046:1,2006-01-02T05:00:00Z,27.8903,-94.0367,1011.21,11111222 
TABS,ioos:station:wmo:42046:1,2006-01-02T05:30:00Z,27.8903,-94.0367,1011.12,11111222 
TABS,ioos:station:wmo:42046:1,2006-01-02T06:00:00Z,27.8903,-94.0367,1011.22,11111222 
TABS,ioos:station:wmo:42046:1,2006-01-02T06:30:00Z,27.8903,-94.0367,1011.69,11111222 
TABS,ioos:station:wmo:42046:1,2006-01-02T07:00:00Z,27.8903,-94.0367,1011.12,11111222 
TABS,ioos:station:wmo:42046:1,2006-01-02T07:30:00Z,27.8903,-94.0367,1011.41,11111222 
TABS,ioos:station:wmo:42046:1,2006-01-02T08:00:00Z,27.8903,-94.0367,1011.77,11111222 
TABS,ioos:station:wmo:42046:1,2006-01-02T08:30:00Z,27.8903,-94.0367,1012.12,11111222 
TABS,ioos:station:wmo:42046:1,2006-01-02T09:00:00Z,27.8903,-94.0367,1012.32,11111222 
TABS,ioos:station:wmo:42046:1,2006-01-02T09:30:00Z,27.8903,-94.0367,1012.43,11111222 
TABS,ioos:station:wmo:42046:1,2006-01-02T10:00:00Z,27.8903,-94.0367,1012.43,11111222 
TABS,ioos:station:wmo:42046:1,2006-01-02T10:30:00Z,27.8903,-94.0367,1012.57,11111222 
TABS,ioos:station:wmo:42046:1,2006-01-02T11:00:00Z,27.8903,-94.0367,1013.12,11111222 
TABS,ioos:station:wmo:42046:1,2006-01-02T11:30:00Z,27.8903,-94.0367,1013.24,11111222 
TABS,ioos:station:wmo:42046:1,2006-01-02T12:00:00Z,27.8903,-94.0367,1013.66,11111222 
TABS,ioos:station:wmo:42046:1,2006-01-02T12:30:00Z,27.8903,-94.0367,1013.95,11111222 
TABS,ioos:station:wmo:42046:1,2006-01-02T13:00:00Z,27.8903,-94.0367,1014.51,11111222 
TABS,ioos:station:wmo:42046:1,2006-01-02T13:30:00Z,27.8903,-94.0367,1014.72,11111222 
TABS,ioos:station:wmo:42046:1,2006-01-02T14:00:00Z,27.8903,-94.0367,1015.09,11111222 
TABS,ioos:station:wmo:42046:1,2006-01-02T14:30:00Z,27.8903,-94.0367,1015.49,11111222 
TABS,ioos:station:wmo:42046:1,2006-01-02T15:00:00Z,27.8903,-94.0367,1015.76,11111222 
TABS,ioos:station:wmo:42046:1,2006-01-02T15:30:00Z,27.8903,-94.0367,1016.13,11111222 
TABS,ioos:station:wmo:42046:1,2006-01-02T16:00:00Z,27.8903,-94.0367,1016.53,11111222 
TABS,ioos:station:wmo:42046:1,2006-01-02T16:30:00Z,27.8903,-94.0367,1016.77,11111222 
TABS,ioos:station:wmo:42046:1,2006-01-02T17:00:00Z,27.8903,-94.0367,1016.44,11111222 
TABS,ioos:station:wmo:42046:1,2006-01-02T17:30:00Z,27.8903,-94.0367,1016.19,11111222 
TABS,ioos:station:wmo:42046:1,2006-01-02T18:00:00Z,27.8903,-94.0367,1015.62,11111222 
TABS,ioos:station:wmo:42046:1,2006-01-02T18:30:00Z,27.8903,-94.0367,1015.3,11111222 
TABS,ioos:station:wmo:42046:1,2006-01-02T19:00:00Z,27.8903,-94.0367,1015.18,11111222 
TABS,ioos:station:wmo:42046:1,2006-01-02T19:30:00Z,27.8903,-94.0367,1015.01,11111222 
TABS,ioos:station:wmo:42046:1,2006-01-02T20:00:00Z,27.8903,-94.0367,1014.78,11111222 
TABS,ioos:station:wmo:42046:1,2006-01-02T20:30:00Z,27.8903,-94.0367,1014.87,11111222 
TABS,ioos:station:wmo:42046:1,2006-01-02T21:00:00Z,27.8903,-94.0367,1015.04,11111222 
TABS,ioos:station:wmo:42046:1,2006-01-02T21:30:00Z,27.8903,-94.0367,1015.07,11111222 
TABS,ioos:station:wmo:42046:1,2006-01-02T22:00:00Z,27.8903,-94.0367,1015.06,11111222 
TABS,ioos:station:wmo:42046:1,2006-01-02T22:30:00Z,27.8903,-94.0367,1015.26,11111222 
TABS,ioos:station:wmo:42046:1,2006-01-02T23:00:00Z,27.8903,-94.0367,1015.61,11111222 
TABS,ioos:station:wmo:42046:1,2006-01-02T23:30:00Z,27.8903,-94.0367,1016.06,11111222 
TABS,ioos:station:wmo:42046:1,2006-01-03T00:00:00Z,27.8903,-94.0367,1016.18,11111222 
TABS,ioos:station:wmo:42046:1,2006-01-03T00:30:00Z,27.8903,-94.0367,1016.39,11111222 
TABS,ioos:station:wmo:42046:1,2006-01-03T01:00:00Z,27.8903,-94.0367,1016.45,11111222 
TABS,ioos:station:wmo:42046:1,2006-01-03T01:30:00Z,27.8903,-94.0367,1016.33,11111222 
TABS,ioos:station:wmo:42046:1,2006-01-03T02:00:00Z,27.8903,-94.0367,1016.81,11111222 
TABS,ioos:station:wmo:42046:1,2006-01-03T02:30:00Z,27.8903,-94.0367,1017.12,11111222 
TABS,ioos:station:wmo:42046:1,2006-01-03T03:00:00Z,27.8903,-94.0367,1017.34,11111222 
TABS,ioos:station:wmo:42046:1,2006-01-03T03:30:00Z,27.8903,-94.0367,1017.83,11111222 
TABS,ioos:station:wmo:42046:1,2006-01-03T04:00:00Z,27.8903,-94.0367,1018.01,11111222 
TABS,ioos:station:wmo:42046:1,2006-01-03T04:30:00Z,27.8903,-94.0367,1018.07,11111222 
TABS,ioos:station:wmo:42046:1,2006-01-03T05:00:00Z,27.8903,-94.0367,1018.15,11111222 
TABS,ioos:station:wmo:42046:1,2006-01-03T05:30:00Z,27.8903,-94.0367,1018.06,11111222 
TABS,ioos:station:wmo:42046:1,2006-01-03T06:00:00Z,27.8903,-94.0367,1017.96,11111222 
TABS,ioos:station:wmo:42046:1,2006-01-03T06:30:00Z,27.8903,-94.0367,1017.94,11111222 
TABS,ioos:station:wmo:42046:1,2006-01-03T07:00:00Z,27.8903,-94.0367,1017.84,11111222 
TABS,ioos:station:wmo:42046:1,2006-01-03T07:30:00Z,27.8903,-94.0367,1017.88,11111222 
TABS,ioos:station:wmo:42046:1,2006-01-03T08:00:00Z,27.8903,-94.0367,1017.78,11111222 
TABS,ioos:station:wmo:42046:1,2006-01-03T08:30:00Z,27.8903,-94.0367,1017.92,11111222 
TABS,ioos:station:wmo:42046:1,2006-01-03T09:00:00Z,27.8903,-94.0367,1017.92,11111222 
TABS,ioos:station:wmo:42046:1,2006-01-03T09:30:00Z,27.8903,-94.0367,1017.83,11111222 
TABS,ioos:station:wmo:42046:1,2006-01-03T10:00:00Z,27.8903,-94.0367,1017.92,11111222 
TABS,ioos:station:wmo:42046:1,2006-01-03T10:30:00Z,27.8903,-94.0367,1018.01,11111222 
TABS,ioos:station:wmo:42046:1,2006-01-03T11:00:00Z,27.8903,-94.0367,1018.08,11111222 
TABS,ioos:station:wmo:42046:1,2006-01-03T11:30:00Z,27.8903,-94.0367,1018.13,11111222 
TABS,ioos:station:wmo:42046:1,2006-01-03T12:00:00Z,27.8903,-94.0367,1018.24,11111222 
TABS,ioos:station:wmo:42046:1,2006-01-03T12:30:00Z,27.8903,-94.0367,1018.48,11111222 
TABS,ioos:station:wmo:42046:1,2006-01-03T13:00:00Z,27.8903,-94.0367,1018.96,11111222 
TABS,ioos:station:wmo:42046:1,2006-01-03T13:30:00Z,27.8903,-94.0367,1019.2,11111222 
TABS,ioos:station:wmo:42046:1,2006-01-03T14:00:00Z,27.8903,-94.0367,1019.46,11111222 
TABS,ioos:station:wmo:42046:1,2006-01-03T14:30:00Z,27.8903,-94.0367,1019.77,11111222 
TABS,ioos:station:wmo:42046:1,2006-01-03T15:00:00Z,27.8903,-94.0367,1020.31,11111222 
TABS,ioos:station:wmo:42046:1,2006-01-03T15:30:00Z,27.8903,-94.0367,1020.79,11111222 
TABS,ioos:station:wmo:42046:1,2006-01-03T16:00:00Z,27.8903,-94.0367,1021.1,11111222 
TABS,ioos:station:wmo:42046:1,2006-01-03T16:30:00Z,27.8903,-94.0367,1021.28,11111222 
TABS,ioos:station:wmo:42046:1,2006-01-03T17:00:00Z,27.8903,-94.0367,1021.05,11111222 
TABS,ioos:station:wmo:42046:1,2006-01-03T17:30:00Z,27.8903,-94.0367,1020.49,11111222 
TABS,ioos:station:wmo:42046:1,2006-01-03T18:00:00Z,27.8903,-94.0367,1019.89,11111222 
TABS,ioos:station:wmo:42046:1,2006-01-03T18:30:00Z,27.8903,-94.0367,1019.44,11111222 
TABS,ioos:station:wmo:42046:1,2006-01-03T19:00:00Z,27.8903,-94.0367,1019.0,11111222 
TABS,ioos:station:wmo:42046:1,2006-01-03T19:30:00Z,27.8903,-94.0367,1018.69,11111222 
TABS,ioos:station:wmo:42046:1,2006-01-03T20:00:00Z,27.8903,-94.0367,1018.29,11111222 
TABS,ioos:station:wmo:42046:1,2006-01-03T20:30:00Z,27.8903,-94.0367,1018.28,11111222 
TABS,ioos:station:wmo:42046:1,2006-01-03T21:00:00Z,27.8903,-94.0367,1018.24,11111222 
TABS,ioos:station:wmo:42046:1,2006-01-03T21:30:00Z,27.8903,-94.0367,1018.4,11111222 
TABS,ioos:station:wmo:42046:1,2006-01-03T22:00:00Z,27.8903,-94.0367,1018.59,11111222 
TABS,ioos:station:wmo:42046:1,2006-01-03T22:30:00Z,27.8903,-94.0367,1018.7,11111222 
TABS,ioos:station:wmo:42046:1,2006-01-03T23:00:00Z,27.8903,-94.0367,1018.7,11111222 
TABS,ioos:station:wmo:42046:1,2006-01-03T23:30:00Z,27.8903,-94.0367,1018.8,11111222 
TABS,ioos:station:wmo:42046:1,2006-01-04T00:00:00Z,27.8903,-94.0367,1018.88,11111222 
TABS,ioos:station:wmo:42046:1,2006-01-04T00:30:00Z,27.8903,-94.0367,1018.73,11111222 
TABS,ioos:station:wmo:42046:1,2006-01-04T01:00:00Z,27.8903,-94.0367,1018.71,11111222 
TABS,ioos:station:wmo:42046:1,2006-01-04T01:30:00Z,27.8903,-94.0367,1018.77,11111222 
TABS,ioos:station:wmo:42046:1,2006-01-04T02:00:00Z,27.8903,-94.0367,1018.66,11111222 
TABS,ioos:station:wmo:42046:1,2006-01-04T02:30:00Z,27.8903,-94.0367,1018.64,11111222 
TABS,ioos:station:wmo:42046:1,2006-01-04T03:00:00Z,27.8903,-94.0367,1018.59,11111222 
TABS,ioos:station:wmo:42046:1,2006-01-04T03:30:00Z,27.8903,-94.0367,1018.55,11111222 
TABS,ioos:station:wmo:42046:1,2006-01-04T04:00:00Z,27.8903,-94.0367,1018.65,11111222 
TABS,ioos:station:wmo:42046:1,2006-01-04T04:30:00Z,27.8903,-94.0367,1018.7,11111222 
TABS,ioos:station:wmo:42046:1,2006-01-04T05:00:00Z,27.8903,-94.0367,1018.49,11111222 
TABS,ioos:station:wmo:42046:1,2006-01-04T05:30:00Z,27.8903,-94.0367,1018.25,11111222 
TABS,ioos:station:wmo:42046:1,2006-01-04T06:00:00Z,27.8903,-94.0367,1017.91,11111222 
TABS,ioos:station:wmo:42046:1,2006-01-04T06:30:00Z,27.8903,-94.0367,1017.83,11111222 
TABS,ioos:station:wmo:42046:1,2006-01-04T07:00:00Z,27.8903,-94.0367,1017.79,11111222 
TABS,ioos:station:wmo:42046:1,2006-01-04T07:30:00Z,27.8903,-94.0367,1017.69,11111222 
TABS,ioos:station:wmo:42046:1,2006-01-04T08:00:00Z,27.8903,-94.0367,1017.54,11111222 
TABS,ioos:station:wmo:42046:1,2006-01-04T08:30:00Z,27.8903,-94.0367,1017.66,11111222 
TABS,ioos:station:wmo:42046:1,2006-01-04T09:00:00Z,27.8903,-94.0367,1017.67,11111222 
TABS,ioos:station:wmo:42046:1,2006-01-04T09:30:00Z,27.8903,-94.0367,1017.8,11111222 
TABS,ioos:station:wmo:42046:1,2006-01-04T10:00:00Z,27.8903,-94.0367,1017.79,11111222 
TABS,ioos:station:wmo:42046:1,2006-01-04T10:30:00Z,27.8903,-94.0367,1017.84,11111222 
TABS,ioos:station:wmo:42046:1,2006-01-04T11:00:00Z,27.8903,-94.0367,1017.98,11111222 
TABS,ioos:station:wmo:42046:1,2006-01-04T11:30:00Z,27.8903,-94.0367,1017.99,11111222 
TABS,ioos:station:wmo:42046:1,2006-01-04T12:00:00Z,27.8903,-94.0367,1018.26,11111222 
TABS,ioos:station:wmo:42046:1,2006-01-04T12:30:00Z,27.8903,-94.0367,1018.65,11111222 
TABS,ioos:station:wmo:42046:1,2006-01-04T13:00:00Z,27.8903,-94.0367,1018.94,11111222 
TABS,ioos:station:wmo:42046:1,2006-01-04T13:30:00Z,27.8903,-94.0367,1019.32,11111222 
TABS,ioos:station:wmo:42046:1,2006-01-04T14:00:00Z,27.8903,-94.0367,1019.59,11111222 
TABS,ioos:station:wmo:42046:1,2006-01-04T14:30:00Z,27.8903,-94.0367,1019.55,11111222 
TABS,ioos:station:wmo:42046:1,2006-01-04T15:00:00Z,27.8903,-94.0367,1019.54,11111222 
TABS,ioos:station:wmo:42046:1,2006-01-04T15:30:00Z,27.8903,-94.0367,1020.09,11111222 
TABS,ioos:station:wmo:42046:1,2006-01-04T16:00:00Z,27.8903,-94.0367,1020.66,11111222 
TABS,ioos:station:wmo:42046:1,2006-01-04T16:30:00Z,27.8903,-94.0367,1020.59,11111222 
TABS,ioos:station:wmo:42046:1,2006-01-04T17:00:00Z,27.8903,-94.0367,1020.28,11111222 
TABS,ioos:station:wmo:42046:1,2006-01-04T17:30:00Z,27.8903,-94.0367,1019.61,11111222 
TABS,ioos:station:wmo:42046:1,2006-01-04T18:00:00Z,27.8903,-94.0367,1019.22,11111222 
TABS,ioos:station:wmo:42046:1,2006-01-04T18:30:00Z,27.8903,-94.0367,1018.64,11111222 
TABS,ioos:station:wmo:42046:1,2006-01-04T19:00:00Z,27.8903,-94.0367,1018.12,11111222 
TABS,ioos:station:wmo:42046:1,2006-01-04T19:30:00Z,27.8903,-94.0367,1017.72,11111222 
TABS,ioos:station:wmo:42046:1,2006-01-04T20:00:00Z,27.8903,-94.0367,1017.56,11111222 
TABS,ioos:station:wmo:42046:1,2006-01-04T20:30:00Z,27.8903,-94.0367,1017.55,11111222 
TABS,ioos:station:wmo:42046:1,2006-01-04T21:00:00Z,27.8903,-94.0367,1017.61,11111222 
TABS,ioos:station:wmo:42046:1,2006-01-04T21:30:00Z,27.8903,-94.0367,1017.85,11111222 
TABS,ioos:station:wmo:42046:1,2006-01-04T22:00:00Z,27.8903,-94.0367,1018.08,11111222 
TABS,ioos:station:wmo:42046:1,2006-01-04T22:30:00Z,27.8903,-94.0367,1017.99,11111222 
TABS,ioos:station:wmo:42046:1,2006-01-04T23:00:00Z,27.8903,-94.0367,1018.08,11111222 
TABS,ioos:station:wmo:42046:1,2006-01-04T23:30:00Z,27.8903,-94.0367,1018.16,11111222 
TABS,ioos:station:wmo:42046:1,2006-01-05T00:00:00Z,27.8903,-94.0367,1018.41,11111222 
TABS,ioos:station:wmo:42046:1,2006-01-05T00:30:00Z,27.8903,-94.0367,1018.36,11111222 
TABS,ioos:station:wmo:42046:1,2006-01-05T01:00:00Z,27.8903,-94.0367,1018.54,11111222 
TABS,ioos:station:wmo:42046:1,2006-01-05T01:30:00Z,27.8903,-94.0367,1018.76,11111222 
TABS,ioos:station:wmo:42046:1,2006-01-05T02:00:00Z,27.8903,-94.0367,1018.68,11111222 
TABS,ioos:station:wmo:42046:1,2006-01-05T02:30:00Z,27.8903,-94.0367,1018.72,11111222 
TABS,ioos:station:wmo:42046:1,2006-01-05T03:00:00Z,27.8903,-94.0367,1018.53,11111222 
TABS,ioos:station:wmo:42046:1,2006-01-05T03:30:00Z,27.8903,-94.0367,1018.57,11111222 
TABS,ioos:station:wmo:42046:1,2006-01-05T04:00:00Z,27.8903,-94.0367,1018.22,11111222 
TABS,ioos:station:wmo:42046:1,2006-01-05T04:30:00Z,27.8903,-94.0367,1018.07,11111222 
TABS,ioos:station:wmo:42046:1,2006-01-05T05:00:00Z,27.8903,-94.0367,1018.02,11111222 
TABS,ioos:station:wmo:42046:1,2006-01-05T05:30:00Z,27.8903,-94.0367,1017.81,11111222 
TABS,ioos:station:wmo:42046:1,2006-01-05T06:00:00Z,27.8903,-94.0367,1018.09,11111222 
TABS,ioos:station:wmo:42046:1,2006-01-05T06:30:00Z,27.8903,-94.0367,1017.7,11111222 
TABS,ioos:station:wmo:42046:1,2006-01-05T07:00:00Z,27.8903,-94.0367,1017.66,11111222 
TABS,ioos:station:wmo:42046:1,2006-01-05T07:30:00Z,27.8903,-94.0367,1017.74,11111222 
TABS,ioos:station:wmo:42046:1,2006-01-05T08:00:00Z,27.8903,-94.0367,1017.87,11111222 
TABS,ioos:station:wmo:42046:1,2006-01-05T08:30:00Z,27.8903,-94.0367,1017.93,11111222 
TABS,ioos:station:wmo:42046:1,2006-01-05T09:00:00Z,27.8903,-94.0367,1017.82,11111222 
TABS,ioos:station:wmo:42046:1,2006-01-05T09:30:00Z,27.8903,-94.0367,1017.99,11111222 
TABS,ioos:station:wmo:42046:1,2006-01-05T10:00:00Z,27.8903,-94.0367,1017.95,11111222 
TABS,ioos:station:wmo:42046:1,2006-01-05T10:30:00Z,27.8903,-94.0367,1017.91,11111222 
TABS,ioos:station:wmo:42046:1,2006-01-05T11:00:00Z,27.8903,-94.0367,1018.45,11111222 
TABS,ioos:station:wmo:42046:1,2006-01-05T11:30:00Z,27.8903,-94.0367,1018.82,11111222 
TABS,ioos:station:wmo:42046:1,2006-01-05T12:00:00Z,27.8903,-94.0367,1019.19,11111222 
TABS,ioos:station:wmo:42046:1,2006-01-05T12:30:00Z,27.8903,-94.0367,1019.58,11111222 
TABS,ioos:station:wmo:42046:1,2006-01-05T13:00:00Z,27.8903,-94.0367,1019.8,11111222 
TABS,ioos:station:wmo:42046:1,2006-01-05T13:30:00Z,27.8903,-94.0367,1020.36,11111222 
TABS,ioos:station:wmo:42046:1,2006-01-05T14:00:00Z,27.8903,-94.0367,1020.89,11111222 
TABS,ioos:station:wmo:42046:1,2006-01-05T14:30:00Z,27.8903,-94.0367,1021.16,11111222 
TABS,ioos:station:wmo:42046:1,2006-01-05T15:00:00Z,27.8903,-94.0367,1021.79,11111222 
TABS,ioos:station:wmo:42046:1,2006-01-05T15:30:00Z,27.8903,-94.0367,1022.4,11111222 
TABS,ioos:station:wmo:42046:1,2006-01-05T16:00:00Z,27.8903,-94.0367,1022.54,11111222 
TABS,ioos:station:wmo:42046:1,2006-01-05T16:30:00Z,27.8903,-94.0367,1022.76,11111222 
TABS,ioos:station:wmo:42046:1,2006-01-05T17:00:00Z,27.8903,-94.0367,1022.51,11111222 
TABS,ioos:station:wmo:42046:1,2006-01-05T17:30:00Z,27.8903,-94.0367,1022.29,11111222 
TABS,ioos:station:wmo:42046:1,2006-01-05T18:00:00Z,27.8903,-94.0367,1021.86,11111222 
TABS,ioos:station:wmo:42046:1,2006-01-05T18:30:00Z,27.8903,-94.0367,1021.45,11111222 
TABS,ioos:station:wmo:42046:1,2006-01-05T19:00:00Z,27.8903,-94.0367,1021.32,11111222 
TABS,ioos:station:wmo:42046:1,2006-01-05T19:30:00Z,27.8903,-94.0367,1021.31,11111222 
TABS,ioos:station:wmo:42046:1,2006-01-05T20:00:00Z,27.8903,-94.0367,1021.5,11111222 
TABS,ioos:station:wmo:42046:1,2006-01-05T20:30:00Z,27.8903,-94.0367,1021.54,11111222 
TABS,ioos:station:wmo:42046:1,2006-01-05T21:00:00Z,27.8903,-94.0367,1021.41,11111222 
TABS,ioos:station:wmo:42046:1,2006-01-05T21:30:00Z,27.8903,-94.0367,1021.38,11111222 
TABS,ioos:station:wmo:42046:1,2006-01-05T22:00:00Z,27.8903,-94.0367,1021.55,11111222 
TABS,ioos:station:wmo:42046:1,2006-01-05T22:30:00Z,27.8903,-94.0367,1021.75,11111222 
TABS,ioos:station:wmo:42046:1,2006-01-05T23:00:00Z,27.8903,-94.0367,1022.32,11111222 
TABS,ioos:station:wmo:42046:1,2006-01-05T23:30:00Z,27.8903,-94.0367,1022.76,11111222 
TABS,ioos:station:wmo:42046:1,2006-01-06T00:00:00Z,27.8903,-94.0367,1022.78,11111222 
TABS,ioos:station:wmo:42046:1,2006-01-06T00:30:00Z,27.8903,-94.0367,1022.94,11111222 
TABS,ioos:station:wmo:42046:1,2006-01-06T01:00:00Z,27.8903,-94.0367,1022.91,11111222 
TABS,ioos:station:wmo:42046:1,2006-01-06T01:30:00Z,27.8903,-94.0367,1023.16,11111222 
TABS,ioos:station:wmo:42046:1,2006-01-06T02:00:00Z,27.8903,-94.0367,1023.49,11111222 
TABS,ioos:station:wmo:42046:1,2006-01-06T02:30:00Z,27.8903,-94.0367,1023.59,11111222 
TABS,ioos:station:wmo:42046:1,2006-01-06T03:00:00Z,27.8903,-94.0367,1023.69,11111222 
TABS,ioos:station:wmo:42046:1,2006-01-06T03:30:00Z,27.8903,-94.0367,1023.96,11111222 
TABS,ioos:station:wmo:42046:1,2006-01-06T04:00:00Z,27.8903,-94.0367,1024.46,11111222 
TABS,ioos:station:wmo:42046:1,2006-01-06T04:30:00Z,27.8903,-94.0367,1024.38,11111222 
TABS,ioos:station:wmo:42046:1,2006-01-06T05:00:00Z,27.8903,-94.0367,1024.44,11111222 
TABS,ioos:station:wmo:42046:1,2006-01-06T05:30:00Z,27.8903,-94.0367,1024.63,11111222 
TABS,ioos:station:wmo:42046:1,2006-01-06T06:00:00Z,27.8903,-94.0367,1024.32,11111222 
TABS,ioos:station:wmo:42046:1,2006-01-06T06:30:00Z,27.8903,-94.0367,1024.44,11111222 
TABS,ioos:station:wmo:42046:1,2006-01-06T07:00:00Z,27.8903,-94.0367,1024.46,11111222 
TABS,ioos:station:wmo:42046:1,2006-01-06T07:30:00Z,27.8903,-94.0367,1023.94,11111222 
TABS,ioos:station:wmo:42046:1,2006-01-06T08:00:00Z,27.8903,-94.0367,1024.38,11111222 
TABS,ioos:station:wmo:42046:1,2006-01-06T08:30:00Z,27.8903,-94.0367,1024.04,11111222 
TABS,ioos:station:wmo:42046:1,2006-01-06T09:00:00Z,27.8903,-94.0367,1023.75,11111222 
TABS,ioos:station:wmo:42046:1,2006-01-06T09:30:00Z,27.8903,-94.0367,1024.18,11111222 
TABS,ioos:station:wmo:42046:1,2006-01-06T10:00:00Z,27.8903,-94.0367,1024.88,11111222 
TABS,ioos:station:wmo:42046:1,2006-01-06T10:30:00Z,27.8903,-94.0367,1024.88,11111222 
TABS,ioos:station:wmo:42046:1,2006-01-06T11:00:00Z,27.8903,-94.0367,1024.88,11111222 
TABS,ioos:station:wmo:42046:1,2006-01-06T11:30:00Z,27.8903,-94.0367,1024.97,11111222 
TABS,ioos:station:wmo:42046:1,2006-01-06T12:00:00Z,27.8903,-94.0367,1025.41,11111222 
TABS,ioos:station:wmo:42046:1,2006-01-06T12:30:00Z,27.8903,-94.0367,1025.37,11111222 
TABS,ioos:station:wmo:42046:1,2006-01-06T13:00:00Z,27.8903,-94.0367,1025.86,11111222 
TABS,ioos:station:wmo:42046:1,2006-01-06T13:30:00Z,27.8903,-94.0367,1026.31,11111222 
TABS,ioos:station:wmo:42046:1,2006-01-06T14:00:00Z,27.8903,-94.0367,1026.31,11111222 
TABS,ioos:station:wmo:42046:1,2006-01-06T14:30:00Z,27.8903,-94.0367,1026.16,11111222 
TABS,ioos:station:wmo:42046:1,2006-01-06T15:00:00Z,27.8903,-94.0367,1027.2,11111222 
TABS,ioos:station:wmo:42046:1,2006-01-06T15:30:00Z,27.8903,-94.0367,1027.28,11111222 
TABS,ioos:station:wmo:42046:1,2006-01-06T16:00:00Z,27.8903,-94.0367,1027.5,11111222 
TABS,ioos:station:wmo:42046:1,2006-01-06T16:30:00Z,27.8903,-94.0367,1027.26,11111222 
TABS,ioos:station:wmo:42046:1,2006-01-06T17:00:00Z,27.8903,-94.0367,1026.85,11111222 
TABS,ioos:station:wmo:42046:1,2006-01-06T17:30:00Z,27.8903,-94.0367,1026.05,11111222 
TABS,ioos:station:wmo:42046:1,2006-01-06T18:00:00Z,27.8903,-94.0367,1025.98,11111222 
TABS,ioos:station:wmo:42046:1,2006-01-06T18:30:00Z,27.8903,-94.0367,1025.5,11111222 